Hourly Data Report for March 27, 2020

OTTAWA INTL A
ONTARIO
Current Station Operator: NAVCAN

45°19'00.000" N
75°40'00.000" W
114.90 m
6106001
71628
YOW

Download Data

Hourly Data (March 2020)
Hourly Data Report for March 27, 2020
TIME
LST
Temp Definition
°C
Dew Point Definition
°C
Rel Hum Definition
%
Precip. Amount Definition
mm

Wind Dir Definition
10's deg

Wind Spd Definition
km/h
Visibility Definition
km
Stn Press Definition
kPa
Hmdx Definition


Wind Chill Definition


Weather Definition


00:00 1.1 -0.5 89   30 22 24.1 99.68     LegendNANA
01:00 0.8 -0.2 93   29 17 24.1 99.70     Mainly Clear
02:00 0.7 -0.3 93   31 22 24.1 99.73     LegendNANA
03:00 0.5 -0.6 92   31 17 24.1 99.76     LegendNANA
04:00 0.4 -1.4 88   33 25 24.1 99.80     Mostly Cloudy
05:00 -0.1 -2.3 85   32 23 24.1 99.84   -6 LegendNANA
06:00 -0.5 -2.6 85   31 22 24.1 99.92   -6 LegendNANA
07:00 -0.2 -3.3 80   33 22 24.1 100.03   -6 Mainly Clear
08:00 0.6 -3.3 75   33 14 24.1 100.12     LegendNANA
09:00 1.7 -3.4 69   31 16 24.1 100.14     LegendNANA
10:00 2.9 -5.3 55   31 15 24.1 100.16     Clear
11:00 4.5 -5.7 48   31 13 24.1 100.16     LegendNANA
12:00 5.1 -7.1 41   27 13 24.1 100.18     LegendNANA
13:00 6.5 -7.8 35   31 17 24.1 100.19     Clear
14:00 7.3 -8.8 31   29 14 24.1 100.21     LegendNANA
15:00 7.8 -8.3 31   29 13 24.1 100.23     LegendNANA
16:00 7.7 -7.3 34   28 15 24.1 100.25     Clear
17:00 7.3 -6.2 38   31 13 24.1 100.30     LegendNANA
18:00 5.4 -6.6 42   27 9 24.1 100.34     LegendNANA
19:00 2.2 -6.3 53   26 12 24.1 100.44     Clear
20:00 2.5 -6.9 50   31 7 24.1 100.47     LegendNANA
21:00 -0.5 -5.6 69   2 4 24.1 100.47   -2 LegendNANA
22:00 1.5 -8.1 49   36 1 24.1 100.54     Clear
23:00 -1.0 -6.3 68   22 7 24.1 100.54   -4 LegendNANA

Notes on Data Quality.

Legend

  • E = Estimated
  • M = Missing
  • NA = Not Available*
  • [empty] = Indicates an unobserved value
Date modified: